Clarksburg, WV

6:05 PM EDT on September 24, 2017 (GMT -0400)
Benedum

Weather History for KCKB - October, 2012

Change the Weather History Date:

Tuesday, October 30, 2012

  Actual Average Record
Temperature  
Mean Temperature 34 °F -  
Max Temperature 34 °F 61 °F 79 °F (1927)
Min Temperature 33 °F 33 °F 19 °F (1928)
Degree Days  
Heating Degree Days 31    
Moisture  
Dew Point 31 °F    
Average Humidity 90    
Maximum Humidity 96    
Minimum Humidity 87    
Precipitation  
Precipitation 0.35 in - - ()
Sea Level Pressure  
Sea Level Pressure 29.28 in    
Wind  
Wind Speed 13 mph (SW)    
Max Wind Speed 17 mph    
Max Gust Speed 25 mph    
Visibility 2 miles    
Events Fog , Snow    
Averages and records for this station are not official NWS values.
T = Trace of Precipitation, MM = Missing Value Source: NWS Daily Summary

Daily Weather History Graph

Daily Weather History Graph

Search for Another Location

Airport or City:

Trip Planner

Search our weather history database for the weather conditions in past years. The results will help you decide how hot, cold, wet, or windy it might be!

Date:

Astronomy

Oct. 30, 2012 Rise Set
Actual Time 7:47 AM EDT 6:21 PM EDT
Civil Twilight 7:19 AM EDT 6:49 PM EDT
Nautical Twilight 6:47 AM EDT 7:20 PM EDT
Astronomical Twilight 6:16 AM EDT 7:51 PM EDT
Moon 6:50 PM EDT (10/30) 8:31 AM EDT (10/30)
Length of Visible Light 11h 29m
Length of Day
10h 34m
Full, 99% of the Moon is Illuminated
Oct 30
Full
Nov 6
Last Quarter
Nov 13
New
Nov 20
First Quarter
Nov 28
Full

Hourly Weather History & Observations

Time (EDT) Temp. Windchill Dew Point Humidity Pressure Visibility Wind Dir Wind Speed Gust Speed Precip Events Conditions
12:53 AM 35.1 °F 26.4 °F 32.0 °F 89% 29.18 in 4.0 mi West 12.7 mph 24.2 mph 0.11 in Snow Light Snow
1:14 AM 33.8 °F 24.8 °F 32.0 °F 93% 29.17 in 2.5 mi West 12.7 mph 25.3 mph 0.02 in Snow Light Snow
1:53 AM 33.1 °F 24.9 °F 30.9 °F 92% 29.17 in 2.5 mi West 10.4 mph 18.4 mph 0.03 in Snow Light Snow
2:30 AM 33.8 °F 25.8 °F 30.2 °F 87% 29.16 in 1.5 mi WSW 10.4 mph - 0.01 in Snow Light Snow
3:32 AM 33.8 °F 25.8 °F 30.2 °F 87% 29.14 in 2.0 mi WSW 10.4 mph 19.6 mph 0.01 in Snow Light Snow
3:53 AM 33.1 °F 24.9 °F 30.9 °F 92% 29.13 in 2.5 mi WSW 10.4 mph 18.4 mph 0.02 in Snow Light Snow
4:41 AM 33.8 °F 24.8 °F 32.0 °F 93% 29.13 in 2.5 mi WSW 12.7 mph - 0.01 in Snow Light Snow
4:53 AM 33.1 °F 23.4 °F 32.0 °F 96% 29.13 in 3.0 mi WSW 13.8 mph - 0.02 in Snow Light Snow
5:19 AM 33.8 °F 25.3 °F 32.0 °F 93% 29.13 in 2.5 mi WSW 11.5 mph 19.6 mph 0.01 in Snow Light Snow
5:53 AM 33.1 °F 23.9 °F 32.0 °F 96% 29.14 in 3.0 mi WSW 12.7 mph - 0.02 in   Overcast
6:05 AM 33.8 °F 24.3 °F 30.2 °F 87% 29.14 in 2.0 mi WSW 13.8 mph - 0.00 in Snow Light Snow
6:53 AM 33.1 °F 23.4 °F 30.9 °F 92% 29.15 in 1.5 mi SW 13.8 mph 23.0 mph 0.00 in Snow Light Snow
7:53 AM 33.1 °F 22.6 °F 30.9 °F 92% 29.16 in 1.5 mi SW 16.1 mph - 0.01 in Snow Light Snow
8:53 AM 33.1 °F 22.6 °F 30.9 °F 92% 29.18 in 1.5 mi SW 16.1 mph - 0.01 in Snow Light Snow
9:00 AM 33.8 °F 24.3 °F 30.2 °F 87% 29.18 in 0.5 mi SW 13.8 mph 20.7 mph 0.00 in Fog , Snow Snow
9:53 AM 33.1 °F 23.4 °F 30.9 °F 92% 29.20 in 0.5 mi SW 13.8 mph 19.6 mph 0.00 in Fog , Snow Snow
10:53 AM 33.1 °F 23.9 °F 30.9 °F 92% 29.21 in 0.8 mi SW 12.7 mph 19.6 mph 0.00 in Snow Light Snow
11:24 AM 33.8 °F 23.9 °F 30.2 °F 87% 29.22 in 1.0 mi SW 15.0 mph - 0.00 in Snow Light Snow
11:53 AM 33.1 °F 22.2 °F 30.9 °F 92% 29.24 in 1.0 mi SW 17.3 mph - 0.00 in Snow Light Snow
12:20 PM 33.8 °F 24.3 °F 30.2 °F 87% 29.24 in 0.8 mi SW 13.8 mph 21.9 mph 0.01 in Snow Light Snow
12:53 PM 33.1 °F 22.2 °F 30.9 °F 92% 29.26 in 0.8 mi SW 17.3 mph - 0.02 in Snow Light Snow
1:03 PM 33.8 °F 25.3 °F 30.2 °F 87% 29.25 in 1.0 mi SW 11.5 mph 21.9 mph 0.00 in Snow Light Snow
1:53 PM 33.1 °F 23.4 °F 30.9 °F 92% 29.28 in 1.5 mi SW 13.8 mph - 0.00 in Snow Light Snow
2:53 PM 33.1 °F 23.4 °F 30.9 °F 92% 29.29 in 1.0 mi SW 13.8 mph - 0.03 in Snow Light Snow
3:13 PM 33.8 °F 25.3 °F 30.2 °F 87% 29.29 in 1.2 mi SW 11.5 mph - 0.01 in Snow Light Snow
3:21 PM 33.8 °F 24.3 °F 30.2 °F 87% 29.29 in 1.2 mi SW 13.8 mph 19.6 mph 0.01 in Snow Light Snow
3:36 PM 33.8 °F 24.8 °F 30.2 °F 87% 29.30 in 1.5 mi SW 12.7 mph 21.9 mph 0.01 in Snow Light Snow
3:53 PM 33.1 °F 23.4 °F 30.9 °F 92% 29.31 in 1.2 mi SSW 13.8 mph - 0.02 in Snow Light Snow
4:30 PM 33.8 °F 24.3 °F 30.2 °F 87% 29.31 in 1.2 mi SW 13.8 mph - 0.01 in Snow Light Snow
4:53 PM 33.1 °F 24.9 °F 30.9 °F 92% 29.34 in 1.2 mi SSW 10.4 mph - 0.01 in Snow Light Snow
5:21 PM 33.8 °F 24.8 °F 30.2 °F 87% 29.33 in 1.5 mi SSW 12.7 mph - 0.00 in Snow Light Snow
5:41 PM 33.8 °F 25.3 °F 30.2 °F 87% 29.34 in 2.0 mi SSW 11.5 mph - 0.00 in Snow Light Snow
5:53 PM 33.1 °F 23.9 °F 30.9 °F 92% 29.36 in 2.5 mi SSW 12.7 mph - 0.00 in Snow Light Snow
6:37 PM 33.8 °F 24.3 °F 30.2 °F 87% 29.37 in 4.0 mi SSW 13.8 mph - 0.00 in Snow Light Snow
6:53 PM 33.1 °F 23.4 °F 30.9 °F 92% 29.39 in 4.0 mi SSW 13.8 mph - 0.00 in Snow Light Snow
7:14 PM 33.8 °F 25.3 °F 30.2 °F 87% 29.39 in 3.0 mi SSW 11.5 mph - 0.00 in Snow Light Snow
7:29 PM 33.8 °F 25.3 °F 30.2 °F 87% 29.39 in 2.5 mi SSW 11.5 mph - 0.00 in Snow Light Snow
8:21 PM 33.8 °F 24.8 °F 30.2 °F 87% 29.41 in 3.0 mi SW 12.7 mph - 0.00 in Snow Light Snow
8:30 PM 33.8 °F 25.3 °F 30.2 °F 87% 29.41 in 2.5 mi SSW 11.5 mph - 0.00 in Snow Light Snow
8:38 PM 33.8 °F 25.3 °F 30.2 °F 87% 29.42 in 2.5 mi SSW 11.5 mph - 0.00 in Snow Light Snow
8:53 PM 33.1 °F 24.4 °F 30.9 °F 92% 29.44 in 2.5 mi SSW 11.5 mph - 0.00 in Snow Light Snow
9:19 PM 33.8 °F 25.3 °F 30.2 °F 87% 29.43 in 3.0 mi SW 11.5 mph - 0.00 in Snow Light Snow
9:53 PM 34.0 °F 26.0 °F 32.0 °F 92% 29.46 in 5.0 mi SW 10.4 mph - 0.00 in   Overcast
10:53 PM 34.0 °F 25.0 °F 32.0 °F 92% 29.47 in 5.0 mi SW 12.7 mph - 0.02 in Snow Light Snow
11:53 PM 34.0 °F 26.6 °F 32.0 °F 92% 29.48 in 6.0 mi SW 9.2 mph - 0.03 in Snow Light Snow